Simultaneous Nadir Overpasses (SNOs) Predictions

Prediction of SNOs between GOES-17 and METOP-B Satellite Orbit:

Table of predicted SNOs for the next 14.0 days since TLE Epoch: 6/29/2019
Index Date Time (GOES-17) GOES-17 Lat,Lon METOP-B Lat,Lon Distance(km) Time Diff (sec)
1 06/29/2019 06:47:03 0.01,-137.20 -0.37,-138.98 202.70 80
2 06/30/2019 06:23:44 0.01,-137.20 0.73,-133.98 366.22 80
3 07/01/2019 18:42:36 -0.01,-137.20 0.28,-138.55 153.20 80
4 07/02/2019 18:24:36 -0.01,-137.20 -0.83,-133.55 415.18 80
5 07/04/2019 06:43:37 0.02,-137.17 -0.18,-138.15 110.92 80
6 07/05/2019 06:20:17 0.03,-137.16 0.92,-133.15 456.79 80
7 07/06/2019 18:39:10 -0.03,-137.15 0.09,-137.72 64.24 80
8 07/09/2019 06:40:10 0.04,-137.11 0.01,-137.32 23.09 80
9 07/11/2019 18:38:23 -0.04,-137.08 -0.11,-136.89 22.78 80




NCC Satellite Simultaneous Nadir Overpasses (SNOs) Prediction Service
